Location: Cluny
(50.9333°N, 112.8167°W)
Time: 22:47:49
(UTC-06:00)

Amateur Radio Satellites - All Passes

Search period start: 04 May 2016 22:17
Search period end: 05 May 2016 22:17
Location: Cluny, 50.9333°N, 112.8167°W

Satellite Date Start Highest point End Downlink Frequencies (MHz)
Time Altitude Azimuth
BEESAT 3 04 May 22:18:44 22:20:43 13° 345° (NNW) 22:22:41 437.485
VELOX 1 04 May 22:22:07 22:23:33 11° 52° (NE) 22:25:01 145.980
PRISM 04 May 22:27:54 22:32:03 62° 288° (WNW) 22:36:10 437.425
BEESAT 2 04 May 22:29:59 22:32:13 14° 343° (NNW) 22:34:28 435.950
Oscar 11 04 May 22:31:04 22:35:06 39° 263° (W) 22:39:11 145.826/435.025
HUMSAT D 04 May 22:36:42 22:40:51 64° 72° (ENE) 22:44:59 437.325/437.525
AIST 2 04 May 22:39:31 22:43:27 41° 320° (NW) 22:47:25 435.215
STRAND 1 04 May 22:39:33 22:43:15 21° 304° (WNW) 22:46:57 437.568
ANTELSAT 04 May 22:43:29 22:45:23 13° 86° (E) 22:47:15 437.575/2403.000
FUNcube-1 04 May 22:45:59 22:50:06 35° 264° (W) 22:54:09 145.935
HO-68 04 May 22:46:29 22:50:34 16° 276° (W) 22:54:41 435.675
DELFI C3 04 May 22:46:44 22:50:32 47° 261° (W) 22:54:24 145.870
RS-15 04 May 22:51:48 23:03:08 75° 123° (ESE) 23:15:08 29.354- 29.394
AISAT 04 May 22:52:17 22:55:36 21° 59° (ENE) 22:58:56 437.250
O/OREOS (USA 219) 04 May 23:03:51 23:06:59 18° 41° (NE) 23:10:05 437.305
UWE-3 04 May 23:05:28 23:08:34 18° 271° (W) 23:11:38 435.000/436.395/437.385
PCSat 04 May 23:09:33 23:14:18 30° 34° (NE) 23:19:02 145.827
ESTCUBE 1 04 May 23:19:10 23:23:22 41° 67° (ENE) 23:27:37 437.505/2401.250
CUBEBUG 2 04 May 23:20:26 23:21:21 10° 276° (W) 23:22:15 437.445
CUBEBUG 1 04 May 23:21:48 23:25:44 33° 65° (ENE) 23:29:42 437.445
GONETS M04 04 May 23:31:10 23:37:00 20° 73° (ENE) 23:42:48
ZACube-1 04 May 23:31:47 23:34:08 14° 273° (W) 23:36:28 437.345
50 SAT 04 May 23:34:40 23:38:08 43° 70° (ENE) 23:41:37 437.505
UNISAT 6 04 May 23:36:19 23:40:25 39° 97° (E) 23:44:26 437.425
Cosmos 2504 04 May 23:43:33 23:48:10 18° 308° (NW) 23:52:51 435.465 / 435.565
DX 1 04 May 23:43:47 23:48:00 48° 68° (ENE) 23:52:15 434.975-435.025
UKube-1 04 May 23:46:02 23:50:08 42° 67° (ENE) 23:54:15 .
QB50P2 04 May 23:47:27 23:49:21 13° 87° (E) 23:51:13 145.880/145.840
POLYITAN 1 04 May 23:49:38 23:51:33 13° 87° (E) 23:53:28 437.675
POPSAT HIP 1 04 May 23:51:31 23:53:31 13° 87° (E) 23:55:32 437.405
TIGRISAT 04 May 23:52:57 23:57:13 53° 100° (E) 00:01:24 435.000
QB50P1 04 May 23:54:17 23:56:34 14° 88° (E) 23:58:51 145.935-145.965
VELOX 1 04 May 23:54:48 23:59:12 67° 72° (ENE) 00:03:39 145.980
Cosmos 2499 04 May 23:58:31 00:00:36 11° 70° (ENE) 00:02:42 435.465 / 435.565
BEESAT 3 04 May 23:58:31 00:00:04 12° 9° (N) 00:01:36 437.485
BEESAT 2 05 May 00:10:13 00:11:42 12° 7° (N) 00:13:12 435.950
SPROUT 05 May 00:11:36 00:15:38 40° 68° (ENE) 00:19:42 437.525
HUMSAT D 05 May 00:14:21 00:16:55 16° 271° (W) 00:19:28 437.325/437.525
BUGSAT 1 05 May 00:16:39 00:17:42 11° 86° (E) 00:18:44 437.445
ANTELSAT 05 May 00:18:23 00:22:46 83° 283° (WNW) 00:27:02 437.575/2403.000
AIST 2 05 May 00:20:32 00:22:59 15° 343° (NNW) 00:25:28 435.215
NANOSAT C BR1 05 May 00:26:48 00:30:26 27° 94° (E) 00:34:02 145.865
AISAT 05 May 00:27:18 00:31:43 60° 258° (WSW) 00:36:10 437.250
TISAT 1 05 May 00:37:24 00:40:57 26° 63° (ENE) 00:44:30 437.305
AIST 1 05 May 00:37:40 00:41:37 36° 91° (E) 00:45:39
O/OREOS (USA 219) 05 May 00:42:31 00:47:05 90° 89° (E) 00:51:35 437.305
BEESAT 05 May 00:47:00 00:47:52 10° 49° (NE) 00:48:45 436.000
PCSat 05 May 00:52:48 00:58:15 77° 236° (SW) 01:03:40 145.827
ESTCUBE 1 05 May 00:56:32 01:00:20 27° 266° (W) 01:04:10 437.505/2401.250
CUBEBUG 1 05 May 00:58:01 01:02:00 33° 264° (W) 01:06:03 437.445
CUSAT 1 05 May 01:03:48 01:09:54 30° 62° (ENE) 01:16:41 437.405
RS-15 05 May 01:05:08 01:16:28 54° 333° (NNW) 01:28:24 29.354- 29.394
50 SAT 05 May 01:09:37 01:12:09 18° 268° (W) 01:14:42 437.505
UNISAT 6 05 May 01:13:20 01:17:01 27° 297° (WNW) 01:20:38 437.425
DUCHIFAT 1 05 May 01:17:42 01:21:58 81° 104° (ESE) 01:26:10 145.980
JAS-2 05 May 01:18:49 01:25:05 26° 87° (E) 01:31:19 435.910
DX 1 05 May 01:21:00 01:24:27 22° 267° (W) 01:27:55 434.975-435.025
QB50P2 05 May 01:21:29 01:25:46 82° 286° (WNW) 01:30:00 145.880/145.840
UKube-1 05 May 01:22:47 01:26:21 25° 266° (W) 01:29:57 .
GONETS M04 05 May 01:23:32 01:32:21 78° 96° (E) 01:41:11
POLYITAN 1 05 May 01:23:41 01:27:58 81° 286° (WNW) 01:32:11 437.675
POPSAT HIP 1 05 May 01:25:37 01:29:55 80° 285° (WNW) 01:34:07 437.405
QB50P1 05 May 01:28:38 01:32:54 73° 286° (WNW) 01:37:06 145.935-145.965
TIGRISAT 05 May 01:30:20 01:33:36 21° 300° (WNW) 01:36:48 435.000
VELOX 1 05 May 01:33:15 01:36:09 17° 271° (W) 01:39:04 145.980
BEESAT 3 05 May 01:35:43 01:39:04 25° 33° (NNE) 01:42:24 437.485
ITUPSAT 1 05 May 01:39:57 01:43:52 26° 61° (ENE) 01:47:47 437.325
Cosmos 2499 05 May 01:45:07 01:52:00 59° 93° (E) 01:59:03 435.465 / 435.565
SWISSCUBE 05 May 01:47:40 01:51:52 32° 64° (ENE) 01:56:06 437.505
BEESAT 2 05 May 01:47:41 01:50:57 23° 30° (NNE) 01:54:11 435.950
SPROUT 05 May 01:48:05 01:51:43 26° 266° (W) 01:55:24 437.525
BUGSAT 1 05 May 01:49:32 01:53:46 87° 99° (E) 01:57:56 437.445
ANTELSAT 05 May 01:56:47 01:58:47 13° 305° (NW) 02:00:45 437.575/2403.000
AIST 2 05 May 02:01:18 02:03:09 13° 7° (N) 02:05:00 435.215
NANOSAT C BR1 05 May 02:02:21 02:06:16 37° 293° (WNW) 02:10:08 145.865
DANDE 05 May 02:07:52 02:13:50 39° 68° (ENE) 02:21:03 436.750
TISAT 1 05 May 02:12:24 02:16:26 41° 262° (W) 02:20:30 437.305
AIST 1 05 May 02:15:35 02:19:19 27° 291° (WNW) 02:23:06
BEESAT 05 May 02:20:02 02:24:40 55° 69° (ENE) 02:29:20 436.000
O/OREOS (USA 219) 05 May 02:23:44 02:25:46 13° 262° (W) 02:27:46 437.305
Oscar 19 05 May 02:23:55 02:28:34 32° 95° (E) 02:33:12 437.125/150
PCSat 05 May 02:37:55 02:40:46 15° 256° (WSW) 02:43:37 145.827
Gurwin Techsat 1B 05 May 02:38:27 02:42:20 20° 89° (E) 02:46:12 435.225
CUSAT 1 05 May 02:45:29 02:52:38 79° 260° (W) 03:00:42 437.405
DUCHIFAT 1 05 May 02:54:43 02:57:07 15° 303° (WNW) 02:59:30 145.980
QB50P2 05 May 02:59:03 03:00:53 13° 305° (NW) 03:02:44 145.880/145.840
POLYITAN 1 05 May 03:01:18 03:03:04 12° 305° (NW) 03:04:51 437.675
JAS-2 05 May 03:03:06 03:10:56 87° 286° (WNW) 03:18:47 435.910
POPSAT HIP 1 05 May 03:03:15 03:04:59 12° 305° (NW) 03:06:42 437.405
QB50P1 05 May 03:06:30 03:07:55 11° 306° (NW) 03:09:20 145.935-145.965
BEESAT 3 05 May 03:13:11 03:17:07 63° 233° (SW) 03:21:00 437.485
ITUPSAT 1 05 May 03:16:50 03:21:28 50° 260° (W) 03:26:07 437.325
RS-15 05 May 03:20:51 03:32:04 43° 6° (N) 03:43:38 29.354- 29.394
GONETS M04 05 May 03:22:30 03:30:09 32° 300° (WNW) 03:37:49
SWISSCUBE 05 May 03:25:11 03:29:37 39° 262° (W) 03:34:05 437.505
BEESAT 2 05 May 03:25:14 03:29:15 77° 230° (SW) 03:33:13 435.950
BUGSAT 1 05 May 03:26:21 03:28:32 14° 304° (NW) 03:30:42 437.445
Cosmos 2499 05 May 03:39:23 03:45:36 33° 296° (WNW) 03:52:00 435.465 / 435.565
AIST 2 05 May 03:39:34 03:43:01 25° 31° (NNE) 03:46:29 435.215
KKS-1 05 May 03:44:42 03:49:03 52° 69° (ENE) 03:53:27 437.445
YUBILEINY 05 May 03:47:14 03:51:28 14° 41° (NE) 03:55:41 435.215
ITAMSAT 1 05 May 03:47:53 03:52:32 32° 95° (E) 03:57:10 435.822/435.867
DANDE 05 May 03:50:34 03:56:51 55° 264° (W) 04:04:35 436.750
STARS 05 May 03:54:48 03:58:54 37° 66° (ENE) 04:03:00 437.465
BEESAT 05 May 03:59:04 04:02:48 22° 268° (W) 04:06:33 436.000
Oscar 19 05 May 04:03:06 04:08:03 44° 294° (WNW) 04:12:57 437.125/150
MOZHAYETS 4 05 May 04:06:02 04:10:29 53° 70° (ENE) 04:14:56
Gurwin Techsat 1B 05 May 04:17:31 04:22:51 72° 289° (WNW) 04:28:08 435.225
CUBESAT XI-V 05 May 04:23:32 04:25:55 14° 55° (NE) 04:28:20 437.345
CUSAT 1 05 May 04:28:54 04:33:59 21° 278° (W) 04:39:26 437.405
JAS-2 05 May 04:48:54 04:55:04 27° 307° (NW) 05:01:20 435.910
AO-7 05 May 04:52:44 05:00:38 44° 99° (E) 05:08:29 29.400- 29.500
HORYU 2 05 May 04:59:55 05:01:31 12° 86° (E) 05:03:08 437.375
BEESAT 2 05 May 05:05:22 05:06:23 11° 250° (WSW) 05:07:25 435.950
AIST 2 05 May 05:17:48 05:21:56 73° 232° (SW) 05:26:04 435.215
KKS-1 05 May 05:22:28 05:25:55 22° 268° (W) 05:29:25 437.445
ITAMSAT 1 05 May 05:27:14 05:32:08 44° 295° (WNW) 05:37:03 435.822/435.867
STARS 05 May 05:31:26 05:35:19 30° 265° (W) 05:39:15 437.465
RS-15 05 May 05:35:05 05:47:13 65° 37° (NE) 05:59:32 29.354- 29.394
DANDE 05 May 05:36:16 05:38:46 12° 281° (W) 05:41:24 436.750
Cosmos 2504 05 May 05:39:17 05:43:19 15° 49° (NE) 05:47:27 435.465 / 435.565
YUBILEINY 05 May 05:42:40 05:51:03 48° 69° (ENE) 05:59:24 435.215
MOZHAYETS 4 05 May 05:44:29 05:47:59 21° 269° (W) 05:51:29
CUBESAT XI-V 05 May 05:57:59 06:02:36 82° 74° (ENE) 06:07:16 437.345
Gurwin Techsat 1B 05 May 05:58:59 06:01:56 15° 309° (NW) 06:04:53 435.225
NOAA 15 05 May 06:10:14 06:12:45 13° 85° (E) 06:15:16 137.62
NOAA 18 05 May 06:11:48 06:13:48 12° 84° (E) 06:15:47 137.9125
BRITE-PL 05 May 06:16:33 06:19:04 13° 82° (E) 06:21:32 437.365/2234.400
Cubesat XI-IV 05 May 06:22:20 06:24:00 11° 84° (E) 06:25:39 437.490
Cosmos 2491 05 May 06:33:56 06:41:50 39° 84° (E) 06:49:45 435.465 / 435.565
HORYU 2 05 May 06:34:19 06:38:47 87° 110° (ESE) 06:43:12 437.375
STRAND 1 05 May 06:42:13 06:46:38 31° 62° (ENE) 06:51:04 437.568
SO-50 05 May 06:44:09 06:47:35 19° 113° (ESE) 06:51:02 436.795
AO-7 05 May 06:45:35 06:53:40 57° 300° (WNW) 07:01:45 29.400- 29.500
LilacSat-2 05 May 06:47:47 06:49:41 13° 88° (E) 06:51:34 437.200
AIST 2 05 May 06:58:41 06:59:41 11° 251° (WSW) 07:00:40 435.215
GOMX 1 05 May 07:13:52 07:17:44 19° 87° (E) 07:21:28 467.674
CUTE-I 05 May 07:14:46 07:19:29 31° 94° (E) 07:24:10 437.470
Cosmos 2504 05 May 07:31:09 07:38:35 57° 73° (ENE) 07:46:30 435.465 / 435.565
CUBESAT XI-V 05 May 07:38:07 07:40:37 14° 273° (W) 07:43:09 437.345
YUBILEINY 05 May 07:39:42 07:47:56 49° 272° (W) 07:56:10 435.215
PRISM 05 May 07:47:42 07:50:59 24° 62° (ENE) 07:54:18 437.425
RS-15 05 May 07:48:01 07:59:46 57° 244° (WSW) 08:11:35 29.354- 29.394
NOAA 15 05 May 07:48:04 07:53:25 79° 103° (ESE) 07:58:45 137.62
NOAA 18 05 May 07:50:00 07:55:29 70° 104° (ESE) 08:00:55 137.9125
BRITE-PL 05 May 07:52:50 07:58:34 69° 101° (ESE) 08:04:10 437.365/2234.400
Cubesat XI-IV 05 May 07:59:45 08:05:05 69° 103° (ESE) 08:10:24 437.490
HORYU 2 05 May 08:12:14 08:14:45 15° 305° (NW) 08:17:15 437.375
HO-68 05 May 08:17:41 08:22:19 18° 86° (E) 08:26:55 435.675
ISS 05 May 08:18:06 08:21:11 39° 152° (SSE) 08:24:16 145.825
LilacSat-2 05 May 08:20:39 08:24:26 64° 287° (WNW) 08:28:11 437.200
STRAND 1 05 May 08:20:45 08:25:40 47° 261° (W) 08:30:35 437.568
SO-50 05 May 08:22:36 08:27:33 84° 313° (NW) 08:32:29 436.795
Cosmos 2491 05 May 08:29:35 08:38:19 61° 287° (WNW) 08:47:06 435.465 / 435.565
DOVE 4 05 May 08:33:26 08:38:23 44° 97° (E) 08:43:02 437.250
AO-7 05 May 08:39:20 08:44:49 20° 324° (NW) 08:50:19 29.400- 29.500
CUTE 1.7 + AOD 2 05 May 08:41:07 08:43:47 16° 89° (E) 08:46:27 437.475
M-CUBED/EXP-1 PRIME 05 May 08:45:47 08:49:38 45° 105° (ESE) 08:53:10 437.505
GOMX 1 05 May 08:50:56 08:56:27 77° 287° (WNW) 09:01:41 467.674
CUTE-I 05 May 08:54:38 08:59:43 47° 294° (WNW) 09:04:48 437.470
CINEMA 3 05 May 08:57:15 09:01:05 25° 91° (E) 09:04:47 145.822/145.860
COMPASS 1 05 May 09:01:53 09:04:12 14° 88° (E) 09:06:31 437.405
AUBIESAT-1 05 May 09:01:59 09:05:52 56° 107° (ESE) 09:09:26 437.475
SEEDS 05 May 09:03:03 09:06:09 20° 91° (E) 09:09:15 437.485
UNISAT 6 05 May 09:06:41 09:08:08 11° 53° (NE) 09:09:36 437.425
TIGRISAT 05 May 09:22:01 09:24:31 15° 56° (NE) 09:26:59 435.000
PRISM 05 May 09:22:13 09:26:06 42° 261° (W) 09:30:03 437.425
Cosmos 2504 05 May 09:24:58 09:31:42 37° 274° (W) 09:38:53 435.465 / 435.565
CUBEBUG 2 05 May 09:26:18 09:29:05 16° 88° (E) 09:31:47 437.445
NOAA 15 05 May 09:28:45 09:32:39 21° 305° (NW) 09:36:33 137.62
AAUSAT CUBESAT 2 05 May 09:29:15 09:32:30 22° 92° (E) 09:35:44 437.432
NOAA 18 05 May 09:31:24 09:35:41 24° 304° (NW) 09:39:58 137.9125
BRITE-PL 05 May 09:31:57 09:36:33 26° 301° (WNW) 09:41:07 437.365/2234.400
GONETS M04 05 May 09:31:58 09:36:41 15° 42° (NE) 09:41:22
ZACube-1 05 May 09:38:53 09:39:39 10° 85° (E) 09:40:24 437.345
Cubesat XI-IV 05 May 09:40:35 09:44:43 24° 303° (WNW) 09:48:51 437.490
YUBILEINY 05 May 09:40:53 09:42:25 11° 296° (WNW) 09:43:57 435.215
CANX-2 05 May 09:43:33 09:47:47 72° 103° (ESE) 09:52:00 2200.000
ANTELSAT 05 May 09:46:14 09:49:51 23° 62° (ENE) 09:53:25 437.575/2403.000
ISS 05 May 09:54:15 09:57:31 82° 351° (N) 10:00:48 145.825
RS-15 05 May 10:03:20 10:09:19 15° 268° (W) 10:15:20 29.354- 29.394
HO-68 05 May 10:04:00 10:11:12 79° 106° (ESE) 10:18:23 435.675
SO-50 05 May 10:04:36 10:08:43 26° 334° (NNW) 10:12:48 436.795
DOVE 4 05 May 10:11:22 10:15:55 32° 297° (WNW) 10:20:15 437.250
Oscar 11 05 May 10:13:08 10:16:48 26° 94° (E) 10:20:27 145.826/435.025
CUTE 1.7 + AOD 2 05 May 10:15:52 10:20:04 63° 288° (WNW) 10:24:15 437.475
DELFI C3 05 May 10:20:15 10:22:44 16° 90° (E) 10:25:13 145.870
M-CUBED/EXP-1 PRIME 05 May 10:20:49 10:23:56 22° 306° (NW) 10:26:53 437.505
FUNcube-1 05 May 10:28:50 10:32:34 30° 95° (E) 10:36:14 145.935
GOMX 1 05 May 10:30:19 10:33:38 17° 307° (NW) 10:36:54 467.674
Cosmos 2491 05 May 10:31:48 10:37:26 18° 313° (NW) 10:43:07 435.465 / 435.565
CINEMA 3 05 May 10:34:01 10:38:29 45° 292° (WNW) 10:42:43 145.822/145.860
COMPASS 1 05 May 10:36:06 10:40:15 70° 287° (WNW) 10:44:24 437.405
AUBIESAT-1 05 May 10:37:12 10:39:59 19° 308° (NW) 10:42:37 437.475
CUTE-I 05 May 10:37:43 10:38:34 10° 315° (NW) 10:39:25 437.470
SEEDS 05 May 10:38:05 10:42:09 50° 290° (WNW) 10:46:13 437.485
UNISAT 6 05 May 10:39:29 10:44:03 65° 72° (ENE) 10:48:33 437.425
AIST 1 05 May 10:39:42 10:42:45 18° 64° (ENE) 10:45:46
DUCHIFAT 1 05 May 10:40:29 10:43:10 17° 58° (ENE) 10:45:52 145.980
QB50P2 05 May 10:44:23 10:47:30 20° 60° (ENE) 10:50:37 145.880/145.840
POLYITAN 1 05 May 10:46:33 10:49:42 20° 60° (ENE) 10:52:51 437.675
UWE-3 05 May 10:48:14 10:52:32 71° 103° (ESE) 10:56:41 435.000/436.395/437.385
POPSAT HIP 1 05 May 10:48:20 10:51:31 20° 60° (ENE) 10:54:41 437.405
QB50P1 05 May 10:51:08 10:54:25 22° 61° (ENE) 10:57:42 145.935-145.965
TIGRISAT 05 May 10:55:57 11:00:35 87° 75° (ENE) 11:05:08 435.000
CUBEBUG 2 05 May 11:01:53 11:06:11 62° 288° (WNW) 11:10:21 437.445
AAUSAT CUBESAT 2 05 May 11:04:15 11:08:13 44° 291° (WNW) 11:12:10 437.432
BUGSAT 1 05 May 11:10:16 11:13:01 17° 58° (ENE) 11:15:46 437.445
ZACube-1 05 May 11:12:25 11:16:41 86° 106° (ESE) 11:20:50 437.345
CANX-2 05 May 11:20:31 11:23:09 16° 301° (WNW) 11:25:48 2200.000
ANTELSAT 05 May 11:21:46 11:26:18 53° 260° (W) 11:30:44 437.575/2403.000
PHONESAT 2.4 05 May 11:22:00 11:23:19 12° 173° (S) 11:24:39 2401.200-2431.200
NANOSAT C BR1 05 May 11:23:26 11:27:25 39° 67° (ENE) 11:31:25 145.865
GONETS M04 05 May 11:27:38 11:36:10 51° 70° (ENE) 11:44:36
Cosmos 2499 05 May 11:28:44 11:35:27 32° 63° (ENE) 11:42:33 435.465 / 435.565
ISS 05 May 11:30:47 11:34:03 89° 196° (SSW) 11:37:20 145.825
JAS-2 05 May 11:37:56 11:42:32 20° 47° (NE) 11:47:30 435.910
SO-50 05 May 11:47:43 11:50:47 16° 358° (N) 11:53:49 436.795
Oscar 11 05 May 11:49:03 11:53:04 39° 292° (WNW) 11:57:04 145.826/435.025
HUMSAT D 05 May 11:50:37 11:54:41 60° 101° (ESE) 11:58:43 437.325/437.525
HO-68 05 May 11:52:24 11:58:20 29° 308° (NW) 12:04:15 435.675
DELFI C3 05 May 11:54:03 11:57:59 58° 289° (WNW) 12:01:56 145.870
FUNcube-1 05 May 12:05:05 12:08:50 32° 294° (WNW) 12:12:32 145.935
AO-85 05 May 12:05:53 12:09:36 19° 111° (ESE) 12:13:17 145.980
Oscar 19 05 May 12:09:16 12:12:11 15° 52° (NE) 12:15:08 437.125/150
AISAT 05 May 12:13:11 12:16:22 19° 90° (E) 12:19:32 437.250
DUCHIFAT 1 05 May 12:14:08 12:18:24 73° 258° (WSW) 12:22:40 145.980
COMPASS 1 05 May 12:14:12 12:15:04 11° 306° (NW) 12:15:56 437.405
AIST 1 05 May 12:16:26 12:20:49 63° 264° (W) 12:25:10
UNISAT 6 05 May 12:18:03 12:21:11 18° 270° (W) 12:24:18 437.425
QB50P2 05 May 12:18:44 12:22:58 58° 259° (W) 12:27:13 145.880/145.840
POLYITAN 1 05 May 12:20:56 12:25:09 57° 259° (W) 12:29:25 437.675
AO-7 05 May 12:21:02 12:23:28 12° 19° (NNE) 12:25:55 29.400- 29.500
POPSAT HIP 1 05 May 12:22:44 12:26:58 56° 260° (W) 12:31:12 437.405
QB50P1 05 May 12:25:43 12:29:54 52° 260° (W) 12:34:07 145.935-145.965
UWE-3 05 May 12:25:49 12:28:30 16° 302° (WNW) 12:31:07 435.000/436.395/437.385
Gurwin Techsat 1B 05 May 12:29:00 12:30:26 11° 47° (NE) 12:31:53 435.225
50 SAT 05 May 12:33:14 12:36:25 27° 96° (E) 12:39:36 437.505
TIGRISAT 05 May 12:35:38 12:37:53 13° 273° (W) 12:40:08 435.000
CUBEBUG 1 05 May 12:41:10 12:45:10 32° 95° (E) 12:49:08 437.445
CUBEBUG 2 05 May 12:41:43 12:41:55 10° 308° (NW) 12:42:07 437.445
ESTCUBE 1 05 May 12:42:57 12:47:20 44° 99° (E) 12:51:41 437.505/2401.250
BUGSAT 1 05 May 12:43:41 12:47:55 71° 257° (WSW) 12:52:12 437.445
ZACube-1 05 May 12:50:12 12:52:21 14° 304° (NW) 12:54:30 437.345
PHONESAT 2.4 05 May 12:58:18 12:59:21 11° 190° (S) 13:00:25 2401.200-2431.200
NANOSAT C BR1 05 May 12:59:40 13:03:17 26° 266° (W) 13:06:55 145.865
DX 1 05 May 13:02:53 13:07:07 44° 99° (E) 13:11:19 434.975-435.025
UKube-1 05 May 13:03:55 13:08:00 37° 98° (E) 13:12:02 .
ISS 05 May 13:07:23 13:10:18 30° 211° (SSW) 13:13:12 145.825
VELOX 1 05 May 13:16:10 13:20:39 67° 102° (ESE) 13:25:06 145.980
JAS-2 05 May 13:20:04 13:26:20 74° 71° (ENE) 13:33:31 435.910
Cosmos 2499 05 May 13:21:33 13:29:12 71° 265° (W) 13:37:26 435.465 / 435.565
GONETS M04 05 May 13:24:46 13:32:57 46° 273° (W) 13:41:03
HUMSAT D 05 May 13:27:11 13:29:56 18° 300° (WNW) 13:32:41 437.325/437.525
SPROUT 05 May 13:28:15 13:32:17 37° 97° (E) 13:36:17 437.525
SO-50 05 May 13:29:05 13:32:56 23° 22° (NNE) 13:36:42 436.795
ITAMSAT 1 05 May 13:34:05 13:37:10 16° 52° (NE) 13:40:17 435.822/435.867
AO-85 05 May 13:44:00 13:49:30 86° 129° (SE) 13:54:51 145.980
Oscar 19 05 May 13:45:31 13:50:42 75° 72° (ENE) 13:55:55 437.125/150
AISAT 05 May 13:48:48 13:53:15 60° 289° (WNW) 13:57:38 437.250
TISAT 1 05 May 13:51:36 13:54:55 22° 92° (E) 13:58:11 437.305
Gurwin Techsat 1B 05 May 14:04:07 14:09:15 50° 67° (ENE) 14:14:23 435.225
AO-7 05 May 14:06:52 14:13:32 28° 45° (NE) 14:20:12 29.400- 29.500
50 SAT 05 May 14:07:02 14:10:12 28° 294° (WNW) 14:13:22 437.505
CUBEBUG 1 05 May 14:17:27 14:21:30 35° 294° (WNW) 14:25:31 437.445
ESTCUBE 1 05 May 14:20:10 14:23:57 27° 298° (WNW) 14:27:45 437.505/2401.250
DX 1 05 May 14:39:29 14:43:07 26° 298° (WNW) 14:46:45 434.975-435.025
UKube-1 05 May 14:40:12 14:43:57 29° 296° (WNW) 14:47:41 .
VELOX 1 05 May 14:53:32 14:56:41 19° 302° (WNW) 14:59:50 145.980
O/OREOS (USA 219) 05 May 14:59:46 15:04:01 39° 109° (ESE) 15:08:17 437.305
SPROUT 05 May 15:04:28 15:08:08 28° 296° (WNW) 15:11:48 437.525
JAS-2 05 May 15:07:03 15:12:12 26° 273° (W) 15:17:54 435.910
SO-50 05 May 15:09:27 15:14:15 69° 45° (NE) 15:18:53 436.795
ITAMSAT 1 05 May 15:10:43 15:15:54 80° 72° (ENE) 15:21:06 435.822/435.867
ITUPSAT 1 05 May 15:12:15 15:16:24 28° 94° (E) 15:20:32 437.325
Cosmos 2499 05 May 15:16:35 15:21:02 17° 286° (WNW) 15:25:38 435.465 / 435.565
SWISSCUBE 05 May 15:19:51 15:24:17 36° 97° (E) 15:28:41 437.505
AO-85 05 May 15:25:51 15:30:37 30° 331° (NNW) 15:35:13 145.980
DANDE 05 May 15:26:20 15:28:19 15° 81° (E) 15:30:35 436.750
TISAT 1 05 May 15:26:44 15:30:49 46° 291° (WNW) 15:34:51 437.305
Oscar 19 05 May 15:27:00 15:30:36 19° 271° (W) 15:34:14 437.125/150
AISAT 05 May 15:27:57 15:28:50 10° 309° (NW) 15:29:42 437.250
PCSat 05 May 15:39:36 15:44:27 35° 114° (ESE) 15:49:20 145.827
Gurwin Techsat 1B 05 May 15:44:52 15:49:27 29° 267° (W) 15:54:03 435.225
BEESAT 05 May 15:52:32 15:57:17 65° 102° (ESE) 16:02:01 436.000
CUSAT 1 05 May 15:55:18 15:59:18 79° 100° (E) 16:04:42 437.405
AO-7 05 May 15:57:02 16:05:20 85° 68° (ENE) 16:13:42 29.400- 29.500
HORYU 2 05 May 16:01:49 16:05:16 22° 60° (ENE) 16:08:42 437.375
Cosmos 2491 05 May 16:37:01 16:44:15 27° 56° (NE) 16:51:25 435.465 / 435.565
O/OREOS (USA 219) 05 May 16:39:19 16:43:30 34° 309° (NW) 16:47:41 437.305
ITUPSAT 1 05 May 16:49:53 16:54:24 43° 294° (WNW) 16:58:55 437.325
SO-50 05 May 16:50:40 16:54:19 22° 246° (WSW) 16:57:51 436.795
ITAMSAT 1 05 May 16:52:38 16:56:01 17° 272° (W) 16:59:24 435.822/435.867
SWISSCUBE 05 May 16:57:46 17:02:04 34° 296° (WNW) 17:06:21 437.505
CUTE-I 05 May 17:04:18 17:07:33 17° 52° (NE) 17:10:48 437.470
KKS-1 05 May 17:06:56 17:11:20 51° 100° (E) 17:15:41 437.445
DANDE 05 May 17:07:11 17:10:26 46° 290° (WNW) 17:14:41 436.750
AO-85 05 May 17:09:09 17:12:41 18° 354° (N) 17:16:05 145.980
STARS 05 May 17:15:12 17:19:16 34° 97° (E) 17:23:17 437.465
PCSat 05 May 17:22:23 17:27:42 52° 314° (NW) 17:33:02 145.827
BEESAT 05 May 17:31:06 17:34:40 21° 302° (WNW) 17:38:14 436.000
BRITE-PL 05 May 17:31:31 17:35:29 23° 57° (ENE) 17:39:39 437.365/2234.400
MOZHAYETS 4 05 May 17:32:47 17:37:21 64° 101° (E) 17:41:54
NOAA 15 05 May 17:34:17 17:39:03 36° 63° (ENE) 17:43:51 137.62
LilacSat-2 05 May 17:34:44 17:37:04 16° 60° (ENE) 17:39:24 437.200
HORYU 2 05 May 17:37:08 17:41:31 54° 259° (W) 17:45:55 437.375
CUSAT 1 05 May 17:39:33 17:42:32 17° 309° (NW) 17:46:02 437.405
NOAA 18 05 May 17:41:37 17:46:40 39° 63° (ENE) 17:51:44 137.9125
Cubesat XI-IV 05 May 17:47:51 17:52:32 32° 61° (ENE) 17:57:14 437.490
CUBESAT XI-V 05 May 17:50:37 17:53:21 15° 87° (E) 17:56:04 437.345
AO-7 05 May 17:52:28 17:59:07 26° 269° (W) 18:05:50 29.400- 29.500
M-CUBED/EXP-1 PRIME 05 May 18:02:45 18:06:26 24° 55° (NE) 18:10:00 437.505
DOVE 4 05 May 18:08:15 18:11:14 15° 53° (NE) 18:14:15 437.250
AUBIESAT-1 05 May 18:18:25 18:22:13 26° 57° (ENE) 18:25:53 437.475
GOMX 1 05 May 18:26:05 18:30:44 33° 63° (ENE) 18:35:35 467.674
Cosmos 2491 05 May 18:33:32 18:42:26 89° 258° (WSW) 18:51:13 435.465 / 435.565
CUTE-I 05 May 18:41:31 18:46:50 80° 73° (ENE) 18:52:10 437.470
KKS-1 05 May 18:44:05 18:47:37 23° 300° (WNW) 18:51:09 437.445
BEESAT 3 05 May 18:45:37 18:49:20 41° 123° (ESE) 18:53:05 437.485
YUBILEINY 05 May 18:50:11 18:58:16 45° 87° (E) 19:06:21 435.215
AO-85 05 May 18:51:00 18:54:58 22° 19° (NNE) 18:58:42 145.980
STARS 05 May 18:51:40 18:55:35 32° 296° (WNW) 18:59:29 437.465
HO-68 05 May 18:51:55 18:57:37 27° 50° (NE) 19:03:18 435.675
BEESAT 2 05 May 18:59:19 19:02:57 35° 121° (ESE) 19:06:37 435.950
LilacSat-2 05 May 19:07:06 19:10:57 64° 259° (WSW) 19:14:49 437.200
CANX-2 05 May 19:07:41 19:09:52 14° 57° (ENE) 19:12:02 2200.000
BRITE-PL 05 May 19:08:22 19:13:24 71° 258° (WSW) 19:18:52 437.365/2234.400
PCSat 05 May 19:08:27 19:12:20 19° 338° (NNW) 19:16:15 145.827
MOZHAYETS 4 05 May 19:10:48 19:14:06 20° 301° (WNW) 19:17:26
NOAA 15 05 May 19:13:48 19:18:47 42° 262° (W) 19:23:49 137.62
NOAA 18 05 May 19:22:09 19:27:20 41° 262° (W) 19:32:31 137.9125
CUBESAT XI-V 05 May 19:26:36 19:31:20 80° 286° (WNW) 19:36:03 437.345
Cubesat XI-IV 05 May 19:27:20 19:32:28 47° 261° (W) 19:37:37 437.490
M-CUBED/EXP-1 PRIME 05 May 19:35:59 19:40:39 62° 252° (WSW) 19:45:11 437.505
CUTE 1.7 + AOD 2 05 May 19:38:29 19:41:46 23° 62° (ENE) 19:45:04 437.475
DOVE 4 05 May 19:42:50 19:48:03 73° 73° (ENE) 19:53:23 437.250
AUBIESAT-1 05 May 19:51:57 19:56:28 51° 254° (WSW) 20:00:51 437.475
COMPASS 1 05 May 19:57:22 20:00:22 20° 61° (ENE) 20:03:22 437.405
SEEDS 05 May 19:59:31 20:03:00 26° 64° (ENE) 20:06:30 437.485
CINEMA 3 05 May 20:02:46 20:07:30 43° 68° (ENE) 20:12:12 145.822/145.860
GOMX 1 05 May 20:03:39 20:08:39 46° 263° (W) 20:13:55 467.674
RS-15 05 May 20:11:11 20:17:35 17° 93° (E) 20:24:07 29.354- 29.394
UWE-3 05 May 20:15:16 20:18:10 17° 58° (ENE) 20:21:01 435.000/436.395/437.385
Cosmos 2504 05 May 20:16:39 20:23:06 38° 86° (E) 20:29:35 435.465 / 435.565
BEESAT 3 05 May 20:23:31 20:27:08 33° 323° (NW) 20:30:46 437.485
CUTE-I 05 May 20:23:58 20:27:32 18° 272° (W) 20:31:07 437.470
AAUSAT CUBESAT 2 05 May 20:24:16 20:27:46 28° 65° (ENE) 20:31:18 437.432
STRAND 1 05 May 20:25:49 20:30:39 40° 98° (E) 20:35:28 437.568
CUBEBUG 2 05 May 20:28:29 20:32:28 28° 64° (ENE) 20:36:23 437.445
AO-85 05 May 20:31:32 20:36:30 58° 43° (NE) 20:41:00 145.980
Cosmos 2491 05 May 20:31:34 20:38:05 24° 284° (WNW) 20:44:35 435.465 / 435.565
BEESAT 2 05 May 20:37:03 20:40:48 37° 321° (NW) 20:44:34 435.950
HO-68 05 May 20:37:24 20:44:35 87° 250° (WSW) 20:51:48 435.675
ZACube-1 05 May 20:38:09 20:41:13 19° 60° (ENE) 20:44:15 437.345
CANX-2 05 May 20:40:54 20:45:07 86° 253° (WSW) 20:49:22 2200.000
YUBILEINY 05 May 20:46:32 20:55:00 52° 290° (WNW) 21:03:28 435.215
BRITE-PL 05 May 20:51:10 20:53:00 12° 280° (W) 20:54:53 437.365/2234.400
PCSat 05 May 20:54:53 20:57:55 15° 5° (N) 21:00:55 145.827
AIST 2 05 May 20:57:47 21:01:43 43° 123° (ESE) 21:05:41 435.215
PRISM 05 May 20:59:14 21:02:11 18° 91° (E) 21:05:06 437.425
CUBESAT XI-V 05 May 21:05:33 21:08:00 14° 305° (NW) 21:10:27 437.345
DELFI C3 05 May 21:11:11 21:14:01 19° 62° (ENE) 21:16:52 145.870
Oscar 11 05 May 21:12:28 21:16:27 38° 68° (ENE) 21:20:28 145.826/435.025
CUTE 1.7 + AOD 2 05 May 21:13:19 21:17:23 47° 261° (W) 21:21:28 437.475
HUMSAT D 05 May 21:14:03 21:15:37 12° 55° (NE) 21:17:12 437.325/437.525
DOVE 4 05 May 21:22:29 21:26:17 20° 272° (W) 21:30:10 437.250
FUNcube-1 05 May 21:28:40 21:32:56 46° 69° (ENE) 21:37:08 145.935
COMPASS 1 05 May 21:31:34 21:35:36 54° 260° (W) 21:39:41 437.405
SEEDS 05 May 21:34:42 21:38:35 38° 263° (W) 21:42:30 437.485
CINEMA 3 05 May 21:40:18 21:44:45 31° 266° (W) 21:49:11 145.822/145.860
UWE-3 05 May 21:49:31 21:54:07 79° 257° (WSW) 21:58:38 435.000/436.395/437.385
AAUSAT CUBESAT 2 05 May 21:59:26 22:03:11 34° 264° (W) 22:06:59 437.432
BEESAT 3 05 May 22:04:02 22:05:58 13° 346° (NNW) 22:07:55 437.485
CUBEBUG 2 05 May 22:04:27 22:08:56 43° 262° (W) 22:13:21 437.445
STRAND 1 05 May 22:05:11 22:09:47 35° 297° (WNW) 22:14:23 437.568
ESTCUBE 1 05 May 22:13:39 22:15:33 13° 53° (NE) 22:17:28 437.505/2401.250
